Location: Lane
(33.5226°N, 79.8788°W)
Time: 19:13:35
(UTC+00:00)

Transit 2A - Pass Details

Date: 30 September 2022
Orbit: 598 x 959 km, 66.7° (Epoch: 03 December)

Event Time Altitude Azimuth Distance (km) Brightness Sun altitude
Rises 12:39:34 0° 356° (N) 2,972 8.9 16.9°
Reaches altitude 10° 12:43:02 10° 24° (NNE) 2,125 8.5 17.6°
Maximum altitude 12:45:21 13° 53° (NE) 1,954 8.8 18.1°
Drops below altitude 10° 12:47:45 10° 81° (E) 2,226 9.8 18.5°
Sets 12:51:32 0° 108° (ESE) 3,238 10.9 19.3°
